Flag for Switzerland Weather past 2 weeks in Chur, Graubünden, Switzerland

Now
65 °F

Mild.


Feels Like: 65 °F
Forecast: 45 / 73 °F
Wind: 8 mph from South

Location: Chur-Ems


UV Index: 3 (Moderate)

Visibility: N/A


Pressure: 29.80 "Hg

Humidity: 43%

Dew point: 42 °F

Location of ChurLocation

Historic Weather in Chur

°F

Chur temperature yesterday

Maximum temperature yesterday: 73 °F (at 4:00 PM)
Minimum temperature yesterday: 46 °F (at 3:00 AM)
Average temperature yesterday: 59 °F

Past Weeks' High & Low Weather Summary

 TemperatureHumidityPressure
High73 °F (Apr 24, 4:00 PM)94% (Apr 13, 6:00 AM)30.37 "Hg (Apr 13, 6:00 AM)
Low33 °F (Apr 17, 6:00 AM)21% (Apr 17, 4:00 PM)29.59 "Hg (Apr 20, 4:00 PM)
Average52 °F60%29.99 "Hg
* Reported Apr 10 9:00 AM — Apr 25 9:00 AM, Chur, Weather by CustomWeather, © 2014

Note: Actual official high and low records may vary slightly from our data, if they occured in-between our weather recording intervals... More about our weather records

Advertising

Historic Weather Conditions — Data for Previous 24 hours

 ConditionsComfort  
Time TempWeatherWind HumidityBarometerVisibility
9:00 AM
Apr 25
60 °FRefreshingly cool.9 mph48%29.84 "HgN/A
8:00 AM54 °FOvercast.7 mph61%29.87 "Hg10 mi
7:00 AM53 °FCool.3 mph64%29.88 "HgN/A
6:00 AM53 °FCool.5 mph62%29.88 "HgN/A
5:00 AM54 °FPassing clouds.7 mph60%29.88 "Hg12 mi
4:00 AM53 °FCool.6 mph62%29.89 "HgN/A
3:00 AM55 °FCool.7 mph58%29.90 "HgN/A
2:00 AM54 °FPassing clouds.6 mph61%29.91 "Hg12 mi
1:00 AM54 °FCool.6 mph61%29.92 "HgN/A
12:00 AM54 °FCool.6 mph61%29.93 "HgN/A
11:00 PM
Apr 24
57 °FClear.5 mph57%29.92 "Hg12 mi
10:00 PM57 °FRefreshingly cool.2 mph60%29.91 "HgN/A
9:00 PM62 °FRefreshingly cool.3 mph50%29.88 "HgN/A
8:00 PM65 °FPassing clouds.6 mph45%29.86 "Hg19 mi
7:00 PM68 °FMild.10 mph37%29.85 "HgN/A
6:00 PM70 °FMild.10 mph37%29.85 "HgN/A
5:00 PM72 °FScattered clouds.12 mph33%29.84 "Hg19 mi
4:00 PM73 °FMild.12 mph33%29.86 "HgN/A
3:00 PM72 °FMild.12 mph35%29.89 "HgN/A
2:00 PM70 °FScattered clouds.12 mph36%29.92 "Hg16 mi
1:00 PM69 °FMild.10 mph43%29.95 "HgN/A
12:00 PM65 °FMild.8 mph45%29.99 "HgN/A
11:00 AM59 °FScattered clouds.5 mph56%30.05 "Hg11 mi
10:00 AM59 °FRefreshingly cool.3 mph52%30.08 "HgN/A
Weather by CustomWeather, © 2014

See weather overview